sat.trackr.live / text

‹ back to catalog

TIANPING 3A-01

NORAD 61614 · 2024-189A

PAYLOAD ACTIVE UNKNOWN

§ Identity

Operator
Country
PRC
Launch date
2024-10-22
Launch site
TAISC
Launch vehicle
Mass (kg)
RCS (m²)

External: N2YO · Heavens-Above · Gunter

§ Orbital elements

Epoch: 2026-09-22T23:24:16.046208Z

Period
95.94 min
Inclination
97.5130°
Eccentricity
0.0003148
Mean motion
15.00978284 rev/d
Perigee alt
561.7 km
Apogee alt
566.1 km
Semi-major
6,942.0 km
B*
1.4662e-4
RAAN
283.0441°
Arg perigee
103.0639°
Mean anomaly
257.0937°
Rev number
10,515

§ Raw data

TIANPING 3A-011 61614U 24189A   26265.97518572  .00001813  00000+0  14662-3 0  99912 61614  97.5130 283.0441 0003148 103.0639 257.0937 15.00978284105154

JSON: /api/v1/satellites/61614 · /tle

For live sub-satellite position, see the globe view (requires WebGL).

§ Visibility from observer

Set your observer location to see the next 7 days of passes ≥ 10°. The values pass through the URL so the page stays shareable.

No JS? Fill the form by hand. The geolocation button needs JavaScript.